Location: Brivio
(45.7333°N, 9.4500°E)
Time: 02:05:32
(UTC+00:00)

N. Korean satellite - Pass Details

Date: 14 December 2019
Orbit: 454 x 507 km, 97.2° (Epoch: 23 January)

Event Time Altitude Azimuth Distance (km) Brightness Sun altitude
Rises 17:02:25 0° 193° (SSW) 2,597 10.7 -14.0°
Reaches altitude 10° 17:04:44 10° 206° (SSW) 1,714 10.0 -14.4°
Maximum altitude 17:07:54 27° 265° (W) 1,005 9.0 -14.9°
Drops below altitude 10° 17:11:04 10° 324° (NW) 1,710 9.6 -15.4°
Sets 17:13:23 0° 337° (NNW) 2,591 10.3 -15.8°
